Location: Home
(42.5358°N, 72.7383°W)
Time: 02:31:48
(UTC-04:00)

IRIDIUM 152 - Pass Details

Date: 05 July 2022
Orbit: 776 x 779 km, 86.4° (Epoch: 10 August)

Event Time Altitude Azimuth Distance (km) Brightness Sun altitude
Exits shadow 04:41:39 - 200° (SSW) 2,933 ? -6.5°
Reaches altitude 10° 04:43:16 10° 205° (SSW) 2,325 ? -6.3°
Maximum altitude 04:48:15 45° 278° (W) 1,050 ? -5.5°
Drops below altitude 10° 04:53:16 10° 351° (N) 2,341 ? -4.8°
Sets 04:55:44 0° 357° (N) 3,273 ? -4.5°
